Weather Roundup
Issued by NWS Springfield, MO

Home | Current Version | Previous Version | Text Only | Print | Product List | Glossary On
Versions: 1 2 3 4 5 6 7 8 9 10 11 12 13 14 15 16 17 18 19 20 21 22 23 24 25 26 27 28 29 30 31 32 33 34 35 36 37 38 39 40 41 42 43 44 45 46 47 48 49 50
000
NZUS99 KSGF 032007
HRRSGF

HOURLY WEATHER
NATIONAL WEATHER SERVICE SPRINGFIELD MO
200 PM CST SAT DEC 03 2016

......SGF CWA......

CITY           SKY/WX    TMP DP  RH WIND       PRES   REMARKS
SPRINGFIELD    CLOUDY    47  30  51 SE16      30.18F
JOPLIN         CLOUDY    51  34  52 SE7       30.17F
WEST PLAINS    CLOUDY    43  31  62 SE7       30.26F
ROLLA          CLOUDY    44  32  62 SE9       30.23F
OSAGE BEACH    CLOUDY    48  31  51 SE7       30.23F
BRANSON        CLOUDY    41  36  81 SE10      30.20F

......SURROUNDING SGF CWA......

CITY           SKY/WX    TMP DP  RH WIND       PRES   REMARKS
CHANUTE        CLOUDY    53  35  50 S6        30.16F
PARSONS        CLOUDY    53  34  48 S5        30.16F
COFFEYVILLE    CLOUDY    53  35  50 S7        30.15F
EMPORIA        CLOUDY    46  31  55 SW5       30.14F
GROVE OK       DRIZZLE   52  39  62 SE6       30.17
ROGERS AR      LGT RAIN  45  40  82 E7        30.17F
SILOAM SPRINGS CLOUDY    45  37  76 E6        30.15F
HARRISON AR    LGT RAIN  42  36  79 E10       30.19F
NEAR YELLVILLE CLOUDY    43  34  70 E6        30.20F

......KANSAS AND MISSOURI......

CITY           SKY/WX    TMP DP  RH WIND       PRES   REMARKS
KANSAS CTY INT CLOUDY    44  30  57 E10       30.19F
DOWNTOWN KC    CLOUDY    47  30  51 E7        30.19F
COLUMBIA       CLOUDY    45  32  60 SE10      30.25F
SEDALIA        CLOUDY    49  31  49 E9        30.22F
ST JOSEPH      CLOUDY    44  31  60 E8        30.20F
ST LOUIS       CLOUDY    45  30  55 SE6       30.30
SPIRIT OF STL  CLOUDY    44  32  62 SE7       30.29F
KIRKSVILLE     MOSUNNY   44  34  67 SE10      30.27F
WICHITA        CLOUDY    43  37  79 S6        30.13F
TOPEKA         CLOUDY    47  31  53 E7        30.17F
OLATHE         CLOUDY    47  30  51 E8        30.18F

......TENNESSEE......

CITY           SKY/WX    TMP DP  RH WIND       PRES   REMARKS
MEMPHIS        LGT RAIN  46  41  82 E6        30.24F
NASHVILLE      CLOUDY    44  30  57 E5        30.31F

......ARKANSAS.......

CITY           SKY/WX    TMP DP  RH WIND       PRES   REMARKS
FAYETTEVILLE   LGT RAIN  44  41  89 E5        30.16F
FT SMITH       LGT RAIN  46  42  86 NE13      30.13F
LITTLE ROCK    RAIN      45  45 100 E10       30.18F FOG

......OKLAHOMA.......

CITY           SKY/WX    TMP DP  RH WIND       PRES   REMARKS
TULSA          LGT RAIN  48  44  86 SE7       30.14F
PONCA CITY     LGT RAIN  47  40  76 CALM      30.13F
MCALESTER      LGT RAIN  47  43  86 NE7       30.12F
OKLAHOMA CITY  LGT RAIN  45  43  93 E9        30.08F

......IOWA............

CITY           SKY/WX    TMP DP  RH WIND       PRES   REMARKS
DES MOINES     CLOUDY    41  30  65 S12       30.25F
QUAD CITIES    CLOUDY    39  25  57 S6        30.31F WCI  35

......ILLINOIS........

CITY           SKY/WX    TMP DP  RH WIND       PRES   REMARKS
QUINCY         MOSUNNY   42  33  70 SE8       30.29F
CHICAGO        CLOUDY    33  23  66 W7        30.32F WCI  27




USA.gov is the U.S. government's official web portal to all federal, state and local government web resources and services.